Overview Statistics Trail Chart Weather Telemetry Raw packets
 

This is the latest recevied weather packets stored in our database for station/object HP1CDW-11. If no packets are shown the sender has not sent any weather packets the latest 10 day(s).

<< 53 54 55 56 57 58 >>
Time Temp. Humidity Pressure Rain* Wind** Luminosity Snow
1787853436 32.78° C 53% 1006.4 hPa - - - -
1787852835 32.78° C 53% 1006.6 hPa - - - -
1787852235 32.78° C 53% 1006.8 hPa - - - -
1787851635 32.78° C 53% 1006.9 hPa - - - -
1787851035 32.78° C 52% 1007 hPa - - - -
1787850434 32.78° C 52% 1007.1 hPa - - - -
1787849834 32.78° C 52% 1007.2 hPa - - - -
1787849233 32.78° C 50% 1007.4 hPa - - - -
1787848633 32.78° C 51% 1007.4 hPa - - - -
1787848033 32.78° C 51% 1007.5 hPa - - - -
1787847432 32.22° C 51% 1007.6 hPa - - - -
1787846832 32.22° C 50% 1007.7 hPa - - - -
1787846232 32.22° C 50% 1007.7 hPa - - - -
1787845632 32.22° C 49% 1007.8 hPa - - - -
1787845031 31.67° C 48% 1008 hPa - - - -
1787844431 31.67° C 48% 1008 hPa - - - -
1787843831 31.11° C 47% 1008 hPa - - - -
1787843230 30.56° C 46% 1008 hPa - - - -
1787842630 29.44° C 46% 1008.1 hPa - - - -
1787842030 22.78° C 59% 1008.1 hPa - - - -
1787841429 22.78° C 59% 1007.9 hPa - - - -
1787840829 23.33° C 58% 1007.9 hPa - - - -
1787840229 23.33° C 58% 1007.8 hPa - - - -
1787839628 24.44° C 62% 1007.7 hPa - - - -
1787839028 27.22° C 68% 1007.7 hPa - - - -

* Rain since midnight (hover to see other rain measurements)
** Current wind speed in m/s (hover to see current wind gust speed)